Weather History for Eveleth, MN

Change the Weather History Date:

Thursday, October 31, 2013

  Actual Average Record
Temperature  
Mean Temperature 40 °F -  
Max Temperature 42 °F 42 °F 66 °F (1999)
Min Temperature 37 °F 27 °F 8 °F (1996)
Degree Days  
Heating Degree Days 26    
Moisture  
Dew Point 38 °F    
Average Humidity 94    
Maximum Humidity 100    
Minimum Humidity 93    
Precipitation  
Precipitation 0.00 in - - ()
Sea Level Pressure  
Sea Level Pressure 29.47 in    
Wind  
Wind Speed 2 mph (NNW)    
Max Wind Speed 9 mph    
Max Gust Speed -    
Visibility 5 miles    
Events Fog    
Averages and records for this station are not official NWS values.
T = Trace of Precipitation, MM = Missing Value Source: NWS Daily Summary

Daily Weather History Graph

Daily Weather History Graph

Search for Another Location

Airport:

Trip Planner

Search our weather history database for the weather conditions in past years. The results will help you decide how hot, cold, wet, or windy it might be!

Date:

Astronomy

Oct. 31, 2013 Rise Set
Actual Time 7:52 AM CDT 5:53 PM CDT
Civil Twilight 7:20 AM CDT 6:25 PM CDT
Nautical Twilight 6:44 AM CDT 7:02 PM CDT
Astronomical Twilight 6:08 AM CDT 7:37 PM CDT
Moon 4:30 AM CDT 4:21 PM CDT
Length of Visible Light 11h 05m
Length of Day
10h 01m
Waning Crescent, 10% of the Moon is Illuminated
Oct 31
Waning Crescent
Nov 3
New
Nov 9
First Quarter
Nov 17
Full
Nov 25
Last Quarter

Hourly Weather History & Observations

Time (CDT) Temp. Windchill Dew Point Humidity Pressure Visibility Wind Dir Wind Speed Gust Speed Precip Events Conditions
12:06 AM 39.2 °F - 37.4 °F 93% 29.67 in 0.8 mi Calm Calm - N/A   Overcast
12:27 AM 39.2 °F - 37.4 °F 93% 29.65 in 0.5 mi Calm Calm - N/A Fog Fog
12:47 AM 39.2 °F - 37.4 °F 93% 29.65 in 0.5 mi Calm Calm - N/A Fog Fog
1:06 AM 39.2 °F - 37.4 °F 93% 29.64 in 0.5 mi Calm Calm - N/A Fog Fog
1:27 AM 39.2 °F - 37.4 °F 93% 29.64 in 0.5 mi Calm Calm - N/A Fog Fog
1:47 AM 39.2 °F - 37.4 °F 93% 29.63 in 0.5 mi Calm Calm - N/A Fog Fog
2:06 AM 39.2 °F - 37.4 °F 93% 29.62 in 0.5 mi Calm Calm - N/A Fog Fog
2:27 AM 39.2 °F - 37.4 °F 93% 29.61 in 0.5 mi Calm Calm - N/A Fog Fog
2:47 AM - - - N/A% 2.96 in 0.5 mi Calm Calm - N/A Fog Fog
3:06 AM 39.2 °F - 37.4 °F 93% 29.60 in 0.5 mi Calm Calm - N/A Fog Fog
3:27 AM 39.2 °F - 37.4 °F 93% 29.60 in 0.8 mi Calm Calm - N/A   Overcast
3:47 AM 39.2 °F 37.0 °F 37.4 °F 93% 29.59 in 1.5 mi West 3.5 mph - N/A   Overcast
4:07 AM 39.2 °F 35.9 °F 37.4 °F 93% 29.58 in 1.2 mi WNW 4.6 mph - N/A   Overcast
4:27 AM 39.2 °F - 37.4 °F 93% 29.57 in 5.0 mi Calm Calm - N/A   Overcast
4:46 AM 39.2 °F - 37.4 °F 93% 29.56 in 7.0 mi Calm Calm - N/A   Overcast
5:07 AM 39.2 °F - 37.4 °F 93% 29.55 in 7.0 mi Calm Calm - N/A   Overcast
5:26 AM 39.2 °F 37.0 °F 37.4 °F 93% 29.54 in 7.0 mi NNW 3.5 mph - N/A   Overcast
5:47 AM 39.2 °F - 37.4 °F 93% 29.54 in 10.0 mi Calm Calm - N/A   Overcast
6:07 AM 39.2 °F - 37.4 °F 93% 29.54 in 7.0 mi Calm Calm - N/A   Overcast
6:26 AM 39.2 °F - 37.4 °F 93% 29.54 in 4.0 mi Calm Calm - N/A   Overcast
6:47 AM 39.2 °F - 37.4 °F 93% 29.53 in 7.0 mi Calm Calm - N/A   Overcast
7:07 AM 39.2 °F - 37.4 °F 93% 29.52 in 5.0 mi Calm Calm - N/A   Overcast
7:26 AM 39.2 °F - 37.4 °F 93% 29.52 in 5.0 mi Calm Calm - N/A   Overcast
7:45 AM 39.2 °F - 37.4 °F 93% 29.53 in 5.0 mi Calm Calm - N/A   Overcast
8:07 AM 39.2 °F - 37.4 °F 93% 29.52 in 5.0 mi Calm Calm - N/A   Overcast
8:26 AM 39.2 °F - 37.4 °F 93% 29.50 in 5.0 mi Calm Calm - N/A   Overcast
8:47 AM 39.2 °F - 37.4 °F 93% 29.50 in 7.0 mi Calm Calm - N/A   Overcast
9:07 AM 39.2 °F - 37.4 °F 93% 29.51 in 7.0 mi Calm Calm - N/A   Overcast
9:26 AM 39.2 °F - 37.4 °F 93% 29.50 in 5.0 mi Calm Calm - N/A   Overcast
9:47 AM 39.2 °F - 37.4 °F 93% 29.50 in 5.0 mi Calm Calm - N/A   Overcast
10:07 AM 39.2 °F - 37.4 °F 93% 29.50 in 5.0 mi Calm Calm - N/A   Overcast
10:26 AM 39.2 °F 37.0 °F 37.4 °F 93% 29.49 in 3.0 mi ENE 3.5 mph - N/A   Overcast
10:47 AM 39.2 °F - 37.4 °F 93% 29.48 in 0.8 mi Calm Calm - N/A   Overcast
11:07 AM 41.0 °F - 39.2 °F 93% 29.47 in 1.0 mi Calm Calm - N/A   Overcast
11:26 AM 41.0 °F 39.0 °F 41.0 °F 100% 29.47 in 3.0 mi North 3.5 mph - N/A   Overcast
11:47 AM 42.8 °F - 41.0 °F 93% 29.47 in 5.0 mi Calm Calm - N/A   Overcast
12:07 PM 42.8 °F - 41.0 °F 93% 29.45 in 10.0 mi Calm Calm - N/A   Overcast
12:27 PM 42.8 °F 41.1 °F 41.0 °F 93% 29.45 in 7.0 mi West 3.5 mph - N/A   Overcast
12:47 PM 42.8 °F 41.1 °F 41.0 °F 93% 29.43 in 3.0 mi WNW 3.5 mph - N/A   Overcast
1:07 PM 42.8 °F 40.1 °F 41.0 °F 93% 29.42 in 2.5 mi WNW 4.6 mph - N/A   Overcast
1:27 PM 42.8 °F 39.3 °F 41.0 °F 93% 29.41 in 1.0 mi NNW 5.8 mph - N/A   Overcast
1:47 PM 42.8 °F 38.6 °F 41.0 °F 93% 29.40 in 2.0 mi NNW 6.9 mph - N/A   Overcast
2:07 PM 42.8 °F 40.1 °F 41.0 °F 93% 29.39 in 4.0 mi North 4.6 mph - N/A   Overcast
2:26 PM 42.8 °F 40.1 °F 41.0 °F 93% 29.40 in 4.0 mi NW 4.6 mph - N/A   Overcast
2:47 PM 42.8 °F 38.6 °F 41.0 °F 93% 29.38 in 7.0 mi NNW 6.9 mph - N/A   Overcast
3:07 PM 42.8 °F 39.3 °F 41.0 °F 93% 29.38 in 7.0 mi North 5.8 mph - N/A   Overcast
3:27 PM 42.8 °F 41.1 °F 41.0 °F 93% 29.38 in 7.0 mi NNW 3.5 mph - N/A   Overcast
3:47 PM 42.8 °F 38.6 °F 41.0 °F 93% 29.37 in 7.0 mi North 6.9 mph - N/A   Overcast
4:06 PM 41.0 °F 39.0 °F 41.0 °F 100% 29.37 in 3.0 mi NNW 3.5 mph - N/A   Overcast
4:27 PM 41.0 °F 37.1 °F 39.2 °F 93% 29.37 in 4.0 mi North 5.8 mph - N/A   Overcast
4:47 PM 41.0 °F - 39.2 °F 93% 29.36 in 5.0 mi Calm Calm - N/A   Overcast
5:06 PM 39.2 °F 34.2 °F 39.2 °F 100% 29.36 in 7.0 mi NNW 6.9 mph - N/A   Overcast
5:27 PM 39.2 °F 33.6 °F 37.4 °F 93% 29.36 in 4.0 mi NNW 8.1 mph - N/A   Overcast
5:47 PM 39.2 °F 35.9 °F 37.4 °F 93% 29.36 in 10.0 mi NW 4.6 mph - N/A   Overcast
6:07 PM 39.2 °F 35.0 °F 37.4 °F 93% 29.37 in 7.0 mi NW 5.8 mph - N/A   Overcast
6:26 PM 39.2 °F 33.0 °F 37.4 °F 93% 29.36 in 7.0 mi NNW 9.2 mph - N/A   Overcast
6:47 PM 39.2 °F 35.0 °F 37.4 °F 93% 29.37 in 7.0 mi NNW 5.8 mph - N/A   Overcast
7:06 PM 39.2 °F 35.9 °F 37.4 °F 93% 29.37 in 4.0 mi NW 4.6 mph - N/A   Overcast
7:27 PM 39.2 °F 35.0 °F 37.4 °F 93% 29.36 in 2.5 mi NNW 5.8 mph - N/A   Overcast
7:47 PM 39.2 °F 35.0 °F 37.4 °F 93% 29.36 in 3.0 mi NNW 5.8 mph - N/A   Overcast
8:06 PM 39.2 °F 34.2 °F 37.4 °F 93% 29.36 in 3.0 mi NNW 6.9 mph - N/A   Overcast
8:27 PM 39.2 °F 34.2 °F 37.4 °F 93% 29.36 in 4.0 mi NNW 6.9 mph - N/A   Overcast
8:47 PM 39.2 °F 37.0 °F 37.4 °F 93% 29.36 in 4.0 mi NNW 3.5 mph - N/A   Overcast
9:06 PM 39.2 °F 35.0 °F 37.4 °F 93% 29.35 in 5.0 mi NW 5.8 mph - N/A   Overcast
9:27 PM 39.2 °F 35.0 °F 37.4 °F 93% 29.36 in 10.0 mi NW 5.8 mph - N/A   Overcast
9:47 PM 39.2 °F 35.9 °F 37.4 °F 93% 29.36 in 10.0 mi NW 4.6 mph - N/A   Light Drizzle
10:06 PM 39.2 °F 34.2 °F 37.4 °F 93% 29.36 in 10.0 mi NW 6.9 mph - N/A   Light Drizzle
10:27 PM 39.2 °F 35.9 °F 37.4 °F 93% 29.37 in 10.0 mi NNW 4.6 mph - N/A   Overcast
10:46 PM - - - N/A% 29.37 in 10.0 mi Calm Calm - N/A   Overcast
11:07 PM 39.2 °F 35.9 °F 37.4 °F 93% 29.37 in 10.0 mi NW 4.6 mph - N/A   Overcast
11:27 PM 37.4 °F 33.8 °F 37.4 °F 100% 29.37 in 10.0 mi NW 4.6 mph - N/A   Overcast
11:46 PM 37.4 °F 34.9 °F 37.4 °F 100% 2.96 in 7.0 mi WNW 3.5 mph - N/A   Overcast